[[{"header":{"parameterUnit":"m.s-1","parameterCategory":1,"la1":30.2991,"la2":30.254,"lo1":-89.0895,"lo2":-89.0444,"dy":0.0017,"dx":0.0017,"nx":28,"ny":28,"refTime":"2024-03-09T09:00:00:Z","depth":0,"parameterNumber":2,"parameterNumberName":"U-component_of_WINDS"},"data":[0,0,0,0,0,0,0,0,0,0,0,0,0,0,0,0,0,0,0,0,0,0,0,0,0,0,0,0,0,0,0,0,0,0,0,0,0,0,0,0,0,0,0,0,0,0,0,0,0,0,0,0,0,0,0,0,0,0,1.1178,1.1178,0,1.1174,1.1174,1.1174,1.117,1.117,1.117,1.117,1.1164,1.1164,1.1163,0,0,0,0,0,0,0,0,0,0,0,0,0,1.1181,1.1181,1.1178,1.1178,1.1178,1.1174,1.1174,1.1174,1.117,1.117,1.117,1.117,1.1164,1.1164,1.1163,0,0,0,0,0,0,0,0,0,0,0,0,0,1.1179,1.1181,1.1178,1.1175,1.1175,1.1174,1.1174,1.1174,1.117,1.117,1.117,1.117,1.1164,1.1164,1.1163,1.1164,0,0,1.1163,1.1163,0,0,0,0,0,0,0,0,1.1179,1.1178,1.1176,1.1175,1.1175,1.1172,1.1173,1.1171,1.117,1.1172,1.117,1.1169,1.1166,1.1166,1.1165,1.1164,1.1164,1.1163,1.1163,1.1163,1.1163,0,0,0,0,0,0,0,1.1179,1.1179,1.1176,1.1176,1.1175,1.1174,1.1174,1.1172,1.1169,1.1172,1.1171,1.1171,1.1166,1.1166,1.1165,1.1163,1.1163,1.1163,1.1163,1.1163,1.1163,1.1163,0,0,0,0,0,0,1.118,1.1179,1.1176,1.1176,1.1177,1.1174,1.1174,1.1173,1.117,1.1169,1.1171,1.1171,1.1166,1.1165,1.1165,1.1166,1.1163,1.1163,1.1163,1.1163,1.1163,1.1164,0,0,0,0,0,0,1.118,1.1179,1.1177,1.1177,1.1177,1.1174,1.1174,1.1173,1.1173,1.1169,1.1168,1.1171,1.1166,1.1165,1.1165,1.1166,1.1163,1.1162,1.1163,1.1163,1.1163,1.1168,0,0,0,0,0,0,1.118,1.118,1.118,1.1177,1.1177,1.1176,1.1174,1.1173,1.1173,1.1172,1.1169,1.1168,1.1166,1.1165,1.1165,1.1166,1.1162,1.1163,1.1163,1.1163,1.1168,1.1168,1.1169,0,0,0,0,0,1.118,1.118,1.118,1.1179,1.1177,1.1177,1.1176,1.1174,1.1173,1.1173,1.1171,1.1168,1.1166,1.1165,1.1164,1.1165,1.1163,1.1163,1.1163,1.1167,1.1168,1.1169,0,0,0,0,0,0,1.1182,1.118,1.1179,1.1179,1.1178,1.1176,1.1176,1.1174,1.1173,1.1173,1.117,1.1169,1.1169,1.1167,1.1166,1.1167,1.1164,1.1164,1.1167,1.1168,1.1169,1.1169,1.1162,0,0,0,0,0,1.1182,1.1182,1.1181,1.1181,1.118,1.1178,1.1178,1.1177,1.1175,1.1174,1.1172,1.1171,1.117,1.1169,1.1168,1.1168,1.1167,1.1168,1.1169,1.1169,1.1169,1.117,1.1171,1.1164,1.1164,1.1164,0,0,1.1183,1.1182,1.1182,1.1181,1.118,1.118,1.1178,1.1177,1.1177,1.1174,1.1174,1.1172,1.117,1.117,1.117,1.1169,1.1171,1.117,1.117,1.117,1.117,1.1171,1.1171,1.1165,1.1165,1.1165,0,0,1.1184,1.1184,1.1184,1.1184,1.1183,1.1182,1.1182,1.118,1.118,1.1179,1.1177,1.1177,1.1175,1.1174,1.1173,1.1177,1.1174,1.1176,1.1179,1.1179,1.118,1.118,1.1182,1.1182,1.1176,1.1176,1.1176,0,1.1185,1.1185,1.1184,1.1185,1.1184,1.1183,1.1183,1.1183,1.1181,1.1181,1.118,1.1179,1.1177,1.1177,1.1178,1.1178,1.1178,1.1176,1.118,1.1181,1.1181,1.1182,1.1182,1.1177,1.1177,1.1177,1.1177,0,1.1186,1.1187,1.1187,1.1187,1.1187,1.1187,1.1186,1.1186,1.1186,1.1185,1.1185,1.1184,1.1183,1.1183,1.1181,1.1183,1.1182,1.1181,1.1178,1.1182,1.1183,1.1183,1.1177,1.1177,1.1177,1.1177,0,0,1.1187,1.1188,1.1188,1.1188,1.1188,1.1188,1.1189,1.1189,1.1189,1.1189,1.1189,1.1189,1.1188,1.1187,1.1186,1.1186,1.119,1.1185,1.1185,1.1186,1.1192,1.1193,1.1193,1.1189,1.1189,1.1189,1.1192,0,1.1188,1.1189,1.1189,1.1191,1.1191,1.1191,1.1191,1.1191,1.1191,1.1191,1.1191,1.1191,1.1189,1.1189,1.119,1.1189,1.1191,1.1189,1.1189,1.1189,1.1189,1.1194,1.1194,1.1197,1.1192,1.1192,1.1193,0,1.1189,1.119,1.1191,1.1192,1.1193,1.1193,1.1194,1.1194,1.1194,1.1194,1.1195,1.1194,1.1194,1.1193,1.1194,1.1193,1.1193,1.1193,1.1193,1.1192,1.119,1.1193,1.1198,1.1198,1.1193,1.1193,1.1193,0,1.1189,1.1191,1.1192,1.1193,1.1194,1.1194,1.1195,1.1195,1.1195,1.1196,1.1196,1.1197,1.1197,1.1197,1.1197,1.1196,1.1198,1.1196,1.1198,1.1198,1.1197,1.1197,1.1203,1.1199,1.1199,1.1199,1.1199,0,1.119,1.1191,1.1193,1.1193,1.1195,1.1195,1.1196,1.1197,1.1197,1.1198,1.1198,1.1199,1.1198,1.1199,1.1198,1.12,1.12,1.12,1.1199,1.1199,1.1199,1.1199,1.1198,1.1199,1.1199,1.1199,1.1199,0,1.119,1.1191,1.1193,1.1194,1.1195,1.1196,1.1197,1.1198,1.1199,1.12,1.12,1.12,1.1202,1.1201,1.1202,1.1202,1.1204,1.1203,1.1204,1.1203,1.1205,1.1205,1.1209,1.121,1.1206,1.1206,1.1206,0,1.119,1.1191,1.1193,1.1194,1.1195,1.1197,1.1197,1.1198,1.1199,1.1201,1.1201,1.1203,1.1204,1.1206,1.1206,1.1207,1.1206,1.1208,1.1206,1.1207,1.1206,1.1206,1.1206,1.1208,1.1208,1.1208,1.1208,0,1.119,1.1191,1.1193,1.1195,1.1196,1.1198,1.1199,1.12,1.1201,1.1202,1.1204,1.1205,1.1207,1.1208,1.1209,1.121,1.1209,1.1209,1.1209,1.1209,1.1209,1.1209,1.1204,1.1208,1.1208,1.1208,1.1208,1.1208,1.119,1.1191,1.1194,1.1196,1.1197,1.1199,1.12,1.1201,1.1203,1.1205,1.1205,1.1207,1.1209,1.1211,1.1211,1.1213,1.1212,1.1213,1.1213,1.1213,1.1213,1.1209,1.1213,1.1213,1.1213,1.1213,1.1213,0,1.119,1.1192,1.1194,1.1197,1.1198,1.1199,1.1201,1.1202,1.1204,1.1206,1.1208,1.121,1.1212,1.1213,1.1215,1.1216,1.1216,1.1216,1.1216,1.1216,1.1213,1.1213,1.1216,1.1216,1.1216,1.1216,1.1216,1.1216,1.119,1.1193,1.1194,1.1197,1.1199,1.1201,1.1203,1.1204,1.1206,1.1209,1.1211,1.1212,1.1214,1.1216,1.1218,1.1218,1.1218,1.1219,1.1219,1.1216,1.1216,1.1216,1.1215,1.1219,1.1219,1.1222,1.1222,1.1222]},{"header":{"parameterUnit":"m.s-1","parameterCategory":1,"la1":30.2991,"la2":30.254,"lo1":-89.0895,"lo2":-89.0444,"dy":0.0017,"dx":0.0017,"nx":28,"ny":28,"refTime":"2024-03-09T09:00:00:Z","depth":0,"parameterNumber":3,"parameterNumberName":"V-component_of_WINDS"},"data":[0,0,0,0,0,0,0,0,0,0,0,0,0,0,0,0,0,0,0,0,0,0,0,0,0,0,0,0,0,0,0,0,0,0,0,0,0,0,0,0,0,0,0,0,0,0,0,0,0,0,0,0,0,0,0,0,0,0,-7.8037,-7.8039,0,-7.8196,-7.8198,-7.82,-7.8126,-7.8121,-7.8117,-7.8114,-7.8271,-7.8278,-7.8286,0,0,0,0,0,0,0,0,0,0,0,0,0,-7.7663,-7.7671,-7.8037,-7.8039,-7.8041,-7.8196,-7.8198,-7.82,-7.8126,-7.8121,-7.8116,-7.8112,-7.8268,-7.8278,-7.8287,0,0,0,0,0,0,0,0,0,0,0,0,0,-7.7824,-7.7673,-7.8037,-7.8023,-7.8023,-7.8196,-7.8198,-7.8201,-7.8127,-7.8121,-7.8115,-7.811,-7.8265,-7.8277,-7.8288,-7.8482,0,0,-7.8325,-7.833,0,0,0,0,0,0,0,0,-7.7815,-7.7838,-7.8023,-7.8024,-7.8025,-7.8135,-7.8124,-7.8295,-7.8129,-7.8088,-7.8114,-7.8107,-7.823,-7.8244,-7.8287,-7.8489,-7.8496,-7.8326,-7.8333,-7.8338,-7.8341,0,0,0,0,0,0,0,-7.7804,-7.7831,-7.81,-7.8026,-7.8027,-7.8007,-7.8023,-7.8156,-7.819,-7.8091,-7.8086,-7.8106,-7.8229,-7.8276,-7.829,-7.8498,-7.8325,-7.8336,-7.8343,-7.8348,-7.8866,-7.8872,0,0,0,0,0,0,-7.7794,-7.7822,-7.8095,-7.8105,-7.7903,-7.8019,-7.8037,-7.8106,-7.8189,-7.8196,-7.8111,-7.8102,-7.8259,-7.8277,-7.8296,-7.8528,-7.8338,-7.8349,-7.8356,-7.886,-7.8868,-7.8875,0,0,0,0,0,0,-7.7786,-7.7819,-7.8088,-7.7962,-7.7995,-7.8031,-7.8109,-7.8112,-7.8159,-7.8204,-7.8209,-7.8153,-7.8255,-7.8279,-7.8436,-7.8532,-7.8354,-7.8365,-7.8852,-7.8862,-7.8871,-7.8994,0,0,0,0,0,0,-7.7776,-7.7817,-7.7892,-7.7964,-7.8002,-7.8229,-7.8115,-7.8119,-7.818,-7.817,-7.8245,-7.8251,-7.8252,-7.8419,-7.8448,-7.8545,-7.8374,-7.8843,-7.8856,-7.8868,-7.8982,-7.9007,-7.9029,0,0,0,0,0,-7.7763,-7.7919,-7.7896,-7.793,-7.8097,-7.8234,-7.8256,-7.8255,-7.8188,-7.8263,-7.8292,-7.8249,-7.8517,-7.8436,-7.8468,-7.857,-7.8837,-7.8853,-7.8867,-7.8971,-7.9002,-7.9028,0,0,0,0,0,0,-7.7855,-7.7928,-7.7904,-7.8089,-7.8156,-7.8222,-7.8316,-7.8288,-7.8374,-7.8361,-7.8354,-7.8372,-7.8535,-7.8568,-7.8476,-7.8762,-7.8667,-7.8689,-7.8735,-7.8764,-7.8787,-7.8776,-7.8384,0,0,0,0,0,-7.7897,-7.8005,-7.8062,-7.8219,-7.8254,-7.828,-7.834,-7.8333,-7.8402,-7.843,-7.847,-7.8537,-7.8636,-7.8702,-7.8796,-7.8986,-7.9,-7.9071,-7.9095,-7.9114,-7.9134,-7.9236,-7.9269,-7.8924,-7.8924,-7.8924,0,0,-7.7985,-7.8038,-7.8106,-7.8239,-7.8291,-7.84,-7.8304,-7.8424,-7.8505,-7.8447,-7.86,-7.8632,-7.8705,-7.888,-7.8959,-7.8913,-7.9232,-7.9133,-7.9148,-7.9157,-7.9255,-7.9288,-7.9317,-7.8934,-7.8932,-7.8931,0,0,-7.8201,-7.8252,-7.8389,-7.8443,-7.8523,-7.8539,-7.8572,-7.8643,-7.8662,-7.8815,-7.8774,-7.8869,-7.904,-7.9095,-7.9145,-7.9382,-7.9345,-7.9412,-7.9535,-7.9636,-7.9663,-7.9687,-7.9772,-7.9802,-7.9431,-7.9431,-7.9432,0,-7.8299,-7.8465,-7.8462,-7.8587,-7.8646,-7.8601,-7.8738,-7.879,-7.8896,-7.8937,-7.8884,-7.9099,-7.9145,-7.9332,-7.939,-7.9432,-7.9468,-7.9404,-7.966,-7.9684,-7.9706,-7.9787,-7.9818,-7.9439,-7.9438,-7.9437,-7.9437,0,-7.8582,-7.8697,-7.8798,-7.8904,-7.8974,-7.9104,-7.912,-7.9192,-7.9179,-7.92,-7.9356,-7.941,-7.9514,-7.9558,-7.9546,-7.9743,-7.9712,-7.966,-7.9564,-7.9747,-7.9822,-7.9853,-7.945,-7.9447,-7.9445,-7.9443,0,0,-7.8861,-7.8964,-7.9001,-7.9049,-7.9134,-7.9222,-7.935,-7.9454,-7.9515,-7.9589,-7.9695,-7.9841,-7.9794,-7.9851,-7.9844,-7.9932,-8.0116,-7.9868,-7.987,-7.9913,-8.0337,-8.0377,-8.0413,-8.0092,-8.0098,-8.0103,-8.0331,0,-7.9083,-7.9309,-7.9311,-7.9518,-7.9625,-7.9583,-7.9693,-7.9757,-7.978,-7.9871,-7.9895,-8.0,-7.9928,-7.9962,-8.0048,-8.0076,-8.0202,-8.0059,-8.019,-8.0194,-8.0174,-8.0453,-8.0495,-8.0708,-8.0361,-8.0366,-8.0369,0,-7.9374,-7.946,-7.9679,-7.9749,-7.9793,-7.9893,-7.9989,-8.0078,-8.0148,-8.0158,-8.0222,-8.0202,-8.033,-8.0231,-8.0406,-8.031,-8.0362,-8.0384,-8.0393,-8.0405,-8.0294,-8.0473,-8.0776,-8.0808,-8.0416,-8.0412,-8.0409,0,-7.9556,-7.9726,-7.9879,-7.9921,-8.0007,-8.0078,-8.0116,-8.0181,-8.0243,-8.0326,-8.0366,-8.0461,-8.0514,-8.0587,-8.0593,-8.052,-8.077,-8.0671,-8.0781,-8.0782,-8.0837,-8.0833,-8.1153,-8.087,-8.0869,-8.0869,-8.0868,0,-7.9805,-7.9941,-7.9963,-8.0057,-8.0207,-8.0207,-8.0355,-8.0386,-8.0444,-8.0543,-8.0511,-8.0603,-8.0605,-8.0699,-8.0704,-8.0849,-8.0872,-8.0883,-8.0883,-8.0887,-8.0885,-8.0922,-8.0907,-8.0877,-8.0875,-8.0874,-8.0872,0,-8.0035,-8.0055,-8.0219,-8.0287,-8.0307,-8.0415,-8.0472,-8.0561,-8.0581,-8.0706,-8.0735,-8.0765,-8.0874,-8.0887,-8.1013,-8.1016,-8.1191,-8.1175,-8.1169,-8.1166,-8.1276,-8.1266,-8.1631,-8.1679,-8.1364,-8.1367,-8.137,0,-8.0193,-8.0297,-8.0376,-8.0441,-8.0484,-8.0588,-8.0652,-8.0655,-8.0723,-8.0811,-8.0889,-8.0995,-8.108,-8.1256,-8.1288,-8.1385,-8.137,-8.1492,-8.1385,-8.1385,-8.1373,-8.1367,-8.1377,-8.1513,-8.1516,-8.1519,-8.1521,0,-8.0471,-8.0477,-8.0571,-8.0671,-8.0749,-8.0826,-8.0898,-8.0953,-8.0964,-8.1041,-8.1154,-8.122,-8.135,-8.1456,-8.1551,-8.1588,-8.1557,-8.1555,-8.1585,-8.1591,-8.1583,-8.1589,-8.1226,-8.1546,-8.1544,-8.1542,-8.1541,-8.154,-8.0671,-8.0761,-8.0832,-8.0938,-8.0994,-8.1062,-8.115,-8.1181,-8.1276,-8.1383,-8.1378,-8.1502,-8.1568,-8.1693,-8.1737,-8.1832,-8.1792,-8.1836,-8.1848,-8.1859,-8.1871,-8.1568,-8.1849,-8.1849,-8.1848,-8.1847,-8.1847,0,-8.0948,-8.0992,-8.109,-8.1194,-8.1277,-8.1243,-8.1321,-8.1393,-8.1503,-8.1568,-8.1654,-8.1782,-8.1885,-8.1925,-8.2025,-8.2093,-8.2081,-8.2119,-8.2114,-8.2124,-8.1901,-8.1865,-8.2127,-8.2127,-8.2127,-8.2127,-8.2127,-8.2127,-8.1103,-8.1254,-8.1268,-8.1445,-8.1487,-8.161,-8.1658,-8.1721,-8.1773,-8.1919,-8.2005,-8.2031,-8.2087,-8.219,-8.2282,-8.229,-8.2329,-8.2373,-8.2376,-8.2167,-8.2139,-8.2112,-8.2078,-8.2381,-8.2382,-8.2591,-8.2593,-8.2594]}]]